Regional Weather Roundup
Issued by NWS Newport/Morehead, NC

Current Version | Previous Version | Text Only | Print | Product List | Glossary On
Versions: 1 2 3 4 5 6 7 8 9 10 11 12 13 14 15 16 17 18 19 20 21 22 23 24 25 26 27 28 29 30 31 32 33 34 35 36 37 38 39 40 41 42 43 44 45 46 47 48 49 50
000
ASUS42 KMHX 260622
RWRMHX
WEATHER ROUNDUP FOR EASTERN NORTH CAROLINA
NATIONAL WEATHER SERVICE NEWPORT/MOREHEAD CITY NC
100 AM EST WED NOV 26 2014

NOTE: "FAIR" INDICATES FEW OR NO CLOUDS BELOW 12,000 FEET
WITH NO SIGNIFICANT WEATHER AND/OR OBSTRUCTIONS TO VISIBILITY

NCZ015>017-031-032-045>047-102-103-260700-
NORTH COAST

CITY           SKY/WX    TMP DP  RH WIND       PRES   REMARKS
EDENTON        DRIZZLE   55  55 100 NE8       29.98F
ELIZABETH CITY LGT RAIN  58  54  86 NE13      30.00F
KITTY HAWK     LGT RAIN  59  59  99 NE6       29.99F VSB 1
MANTEO         DRIZZLE   58  58  99 E12       30.00F

$$

NCZ045>047-081-094-103-104-260700-
CENTRAL COAST

CITY           SKY/WX    TMP DP  RH WIND       PRES   REMARKS
FRISCO         LGT RAIN  58  58 100 NE9       29.99F FOG
SWANQUARTER      N/A     59 N/A N/A E13       29.91F

$$

NCZ095-097-098-100-101-260700-
SOUTHERN COAST

CITY           SKY/WX    TMP DP  RH WIND       PRES   REMARKS
BEAUFORT       LGT RAIN  61  61 100 E10       29.95F
CEDAR ISLAND     N/A     55 N/A N/A NE9G21    30.00F
JACKSONVILLE   CLOUDY    62  61  96 E6        29.92F
PINEY ISLAND   LGT RAIN  59  56  89 NE14      29.97F FOG
WILMINGTON     LGT RAIN  62  61  96 E10       29.90F


$$

NCZ011>013-027>030-043-044-078>080-089-090>093-098-260700-
COASTAL PLAIN

CITY           SKY/WX    TMP DP  RH WIND       PRES   REMARKS
AHOSKIE        LGT RAIN  50  49  97 NE7       30.01F
CLINTON        RAIN      54  54 100 NE7       29.93F
ELIZABETHTOWN  RAIN      56  56 100 CALM      29.88F
GOLDSBORO      RAIN      54  54 100 NE3       29.91F FOG
GREENVILLE     HVY RAIN  54  54 100 N8        29.97F
HAVELOCK       LGT RAIN  61  59  93 E7        29.95F
KENANSVILLE    DRIZZLE   55  54  97 CALM      29.93F
KINSTON        DRIZZLE   56  56  99 NE6       29.95F
NEW BERN       LGT RAIN  61  58  90 NE7       29.94F
RICHLANDS      CLOUDY    57  55  94 W7        29.92F
ROCKY MOUNT    LGT RAIN  51  50  96 NE10      29.97F FOG
WASHINGTON     CLOUDY    55  54  97 NE6       29.96F
WHITEVILLE     CLOUDY    57  57 100 NE7       29.87F

$$

AMZ130-135-150-152-154-156-158-170-250-252-270-ANZ085-086-088-633-658-670-260700-
MARINE OBSERVATIONS

STATION/POSITION TIME  TEMP    WIND        PRES    WAVE   SWELL
                       AIR SEA DIR/SP/G            HT/PER HT/PER
                 (UTC) (F)     (DEG/KT/KT) (MB)    (FT/S) (FT/S)
CHESAPEAKE LIGHT 0600   53      50/ 19/ 20 1018.4
64 E VA BEACH    0600   61 65   20/ 16/ 17 1016.9    5/ 8   3/ 8
DUCK             0600   58 58   30/ 18/ 20 1014.7
2 E DUCK         0600      58                N/A     3/ 8
10 NE DUCK       0600      59                N/A     4/ 9   2/11
OREGON INLET     0600   60 58   40/  8/ 12 1015.8
13E OREGON INLT  0600      63                N/A     4/ 8   2/11
HATTERAS CG      0600   59 62   40/  8/ 11 1016.1
DIAMOND BUOY     0600   69     150/  4/  6 1015.9    5/ 8   5/ 8
17 S OCRACOKE    NOT AVBL
CAPE LOOKOUT     0600   63      90/ 11/ 14 1014.1
BEAUFORT LAB     0600   61 59   90/  6/  7 1012.8
30 SE NEW RIVER  0600   69 68  140/ 14/ 16 1014.0    4/ 9   3/ 9
5 SE WRIGHTSVLE  0600   59 59   70/ 12/ 16 1011.4
225 S CAPE HAT   0546   75 74  180/ 16/ 19 1016.7    6/ 9   3/ 9
41 SE CHARLESTON 0600   74 75  130/ 29/ 37 1007.2    7/ 6   3/ 9

$$



USA.gov is the U.S. government's official web portal to all federal, state and local government web resources and services.